Wind_Speed
47 47 48 49 51 52 53 55 56 56 56 57 58 60 60 62 63 64 64 63 62 61 59 57 56 55 54 54 53 52 51 50 49 50 50 50 50 50 50 50 50 50 50 51 50 48 47 48 49 47 45 44 44 44 43 43 42 41 41 40 39 37 36 36 37 38 39 40 42 44 48 50 51 51 51 51 51 52 51 51 52 53 54 55 56
49 50 50 50 51 52 54 57 58 57 58 60 62 63 64 64 64 63 62 61 61 60 59 58 56 56 56 55 55 54 54 53 53 53 53 53 53 52 52 52 53 54 54 52 50 47 46 47 49 50 47 45 44 44 45 45 44 44 43 42 42 41 40 38 38 38 39 40 42 43 45 48 51 53 54 54 54 54 54 54 53 54 55 56 57
51 52 52 52 53 55 58 60 62 62 62 64 65 64 64 65 64 63 61 59 58 57 57 57 57 56 57 57 57 57 57 57 56 56 56 56 56 55 56 57 57 57 55 52 49 47 46 45 47 50 50 48 47 47 46 46 46 45 45 44 44 44 43 42 41 40 40 41 42 44 45 46 48 51 54 56 57 58 58 57 57 56 56 58 59
54 54 55 55 56 58 61 63 64 64 64 66 67 67 65 63 62 61 60 58 56 55 56 58 58 58 58 58 59 60 60 59 59 59 59 59 59 59 60 60 60 58 55 51 49 48 47 45 45 47 49 50 50 50 49 49 48 47 47 46 45 45 45 45 45 44 44 44 44 44 45 46 48 49 51 54 56 59 60 61 61 61 60 60 61
58 58 58 59 59 60 62 64 64 63 63 65 66 66 65 63 61 61 60 58 57 56 57 58 58 57 58 59 60 61 61 62 63 63 62 62 62 63 63 62 60 57 54 52 50 49 49 48 47 46 48 50 51 51 51 51 51 50 49 48 47 47 47 47 47 47 47 47 47 47 47 47 48 49 50 51 53 55 58 60 63 64 64 64 64
61 61 61 61 61 62 63 64 64 63 64 65 65 63 62 60 59 60 61 60 58 58 58 59 59 58 59 61 63 65 66 67 68 68 67 65 64 63 62 59 56 54 52 51 51 51 51 51 50 50 50 50 51 52 52 53 53 53 52 51 50 50 49 48 49 49 50 50 50 51 51 51 51 51 51 51 52 54 55 57 59 62 64 65 66
63 62 62 63 63 63 63 64 64 64 64 65 65 64 64 63 63 64 65 65 63 63 63 63 64 65 66 68 71 72 73 75 75 73 70 65 62 59 56 54 51 50 50 51 51 52 51 51 51 50 50 49 50 51 53 54 54 55 55 54 54 53 52 51 51 52 52 53 53 53 54 54 54 54 55 55 54 55 55 56 57 59 61 63 65
64 63 63 63 63 63 63 63 62 62 63 63 64 65 66 66 67 69 70 69 69 68 67 67 68 69 70 71 73 76 78 78 78 76 70 62 57 55 54 52 50 49 50 50 50 49 48 47 48 48 48 47 47 48 50 51 53 55 57 57 57 57 56 55 54 54 54 55 56 56 57 57 58 58 58 59 59 59 58 58 57 58 59 60 62
63 63 63 62 62 62 62 62 61 61 59 58 60 63 64 64 66 69 71 71 71 70 70 69 67 68 68 68 69 72 76 76 75 74 70 61 53 50 50 49 49 49 50 49 48 46 46 46 46 47 47 47 46 45 46 47 49 52 55 57 58 58 59 58 57 57 57 57 58 59 60 60 61 61 62 62 63 63 63 62 61 61 60 60 61
62 61 60 60 60 60 61 61 61 60 58 56 57 60 61 62 65 68 69 70 70 69 68 67 65 65 65 64 65 67 68 70 70 70 68 60 50 45 45 46 47 48 49 49 48 48 48 49 48 47 47 46 45 44 44 45 47 49 52 55 56 58 59 60 59 58 59 60 61 62 62 63 64 64 65 66 66 66 66 66 66 66 65 64 63
61 60 60 59 60 60 60 59 59 59 59 59 59 60 62 64 66 66 67 68 68 67 66 64 63 63 63 63 64 64 64 66 69 69 66 61 54 48 47 47 47 48 50 50 50 50 50 50 50 50 50 50 49 49 48 49 49 49 50 52 54 57 59 60 60 60 60 62 63 64 65 66 67 67 68 68 69 69 69 69 69 69 69 69 69
62 61 60 60 60 60 59 58 58 58 58 59 59 59 61 65 66 66 66 65 64 64 64 63 61 61 62 64 65 66 65 66 68 69 67 64 60 56 53 51 50 51 52 53 53 52 52 52 51 52 53 54 54 54 54 53 52 51 51 52 54 56 58 60 61 62 63 64 65 65 66 68 69 70 71 71 71 72 72 72 72 72 73 73 73
62 62 61 61 61 61 60 58 58 58 59 59 60 60 61 63 65 66 65 64 62 62 63 62 62 62 63 65 66 67 66 66 67 68 68 67 65 62 59 57 55 54 54 55 55 55 55 54 54 54 55 56 57 57 57 57 56 54 53 53 54 55 57 59 61 63 65 67 68 68 68 70 71 72 73 74 74 74 74 75 75 75 76 76 76
63 62 62 62 62 62 61 60 59 59 60 60 61 63 64 64 66 67 66 63 62 61 61 62 63 64 66 67 67 67 67 68 68 69 69 69 68 66 64 61 60 58 57 57 58 58 58 57 57 57 58 59 60 60 61 60 60 59 58 57 57 57 57 59 61 64 66 67 69 69 71 72 74 74 75 76 76 77 77 77 78 78 78 79 80
63 63 63 63 63 63 62 62 61 61 62 62 62 65 67 67 69 70 67 65 64 63 62 63 64 65 67 68 69 69 70 70 70 70 70 70 70 70 68 67 65 63 62 61 61 61 60 60 60 61 62 62 63 63 63 63 64 64 64 64 64 63 62 62 63 65 67 69 70 70 71 73 75 76 77 78 79 80 80 80 80 80 80 81 82
61 62 62 62 63 63 63 64 64 64 64 64 64 66 68 69 71 71 69 67 66 66 66 66 66 66 68 69 70 71 72 73 73 73 73 73 73 73 73 72 70 68 66 65 64 63 63 64 64 65 66 67 67 67 66 66 66 67 67 68 69 69 69 69 69 68 69 71 71 72 73 74 75 76 78 80 81 82 82 83 83 84 84 84 84
57 58 59 59 60 61 63 64 65 66 66 66 67 67 68 69 71 71 70 69 69 69 69 69 69 69 69 70 71 73 74 75 75 75 75 75 76 76 76 75 73 71 69 68 67 67 67 67 68 69 70 71 70 70 70 70 70 70 71 71 72 73 74 75 76 76 75 75 75 75 75 76 77 78 79 80 82 83 83 84 85 85 85 86 87
55 56 56 56 57 59 60 62 63 65 66 67 68 69 69 70 71 71 71 71 71 71 71 71 71 72 72 73 73 74 75 75 75 76 76 76 76 76 76 76 74 73 72 71 70 70 70 71 71 72 73 73 73 73 73 74 74 74 75 76 76 77 77 78 78 79 80 81 81 80 79 78 79 79 81 82 83 83 84 84 85 85 85 85 86
56 56 56 56 57 57 58 59 61 62 64 66 67 68 69 70 71 71 72 73 73 73 73 73 73 73 74 75 75 75 76 76 75 75 75 76 76 75 75 75 74 74 73 73 72 72 72 73 73 74 75 75 76 76 76 77 78 78 79 79 80 80 80 80 80 80 81 82 83 84 84 82 81 80 81 82 83 84 85 85 86 86 85 85 86
59 59 58 58 59 59 59 60 61 62 63 65 66 67 68 69 70 70 71 72 73 72 73 73 74 75 76 76 76 76 76 76 76 76 75 75 74 74 74 74 74 74 74 74 74 74 74 75 75 76 77 78 78 79 79 80 81 82 82 83 83 82 82 82 82 82 82 82 82 83 84 85 84 83 82 81 82 83 84 85 86 87 87 87 87
63 62 62 61 62 62 62 62 63 64 64 64 65 66 67 68 69 69 70 71 71 71 72 73 74 75 76 77 77 77 77 77 77 76 75 74 74 74 74 74 75 75 75 75 75 75 76 77 78 78 79 80 80 81 82 83 84 85 85 85 84 84 83 83 83 83 83 82 82 82 82 83 84 84 84 83 82 82 82 84 85 86 87 87 88
67 67 66 66 66 66 66 66 66 66 66 66 66 67 68 69 70 69 69 69 69 69 70 72 73 74 75 76 77 78 78 78 78 77 76 76 75 74 74 74 74 75 75 76 76 77 78 79 80 81 81 82 83 84 85 86 87 87 87 86 85 84 84 84 84 83 82 81 80 80 80 81 81 81 82 82 82 82 82 82 82 83 84 86 87
71 71 72 71 70 70 70 70 70 70 70 69 70 71 72 72 72 71 71 71 70 70 70 71 71 72 73 74 76 77 78 78 77 77 76 76 75 75 74 74 75 75 76 76 77 78 80 81 82 83 84 84 86 87 88 88 89 88 87 87 86 86 85 84 83 81 79 78 77 77 78 78 78 78 78 79 79 80 80 80 80 80 81 82 84
74 74 75 76 75 75 75 75 74 74 73 73 74 75 75 75 75 75 75 74 74 73 73 72 72 73 73 75 76 77 77 76 75 75 74 74 74 74 75 75 76 76 77 78 79 80 81 83 84 85 86 87 88 89 89 89 88 88 88 87 87 85 84 82 80 78 76 75 74 74 74 75 75 75 75 75 75 76 76 76 77 77 77 78 80
77 77 78 79 80 80 79 78 78 77 78 77 77 77 78 77 78 78 78 78 78 76 75 75 75 75 77 78 78 77 77 76 75 75 75 75 75 76 76 77 78 79 79 80 81 82 83 84 86 87 88 89 90 90 89 89 88 88 87 86 85 83 81 78 76 74 73 72 71 71 71 71 71 71 72 72 72 72 72 72 72 73 73 73 74
79 79 80 81 82 83 83 82 81 81 81 81 80 80 80 81 81 81 82 82 81 80 78 77 77 78 80 80 80 80 79 78 78 78 78 78 78 79 79 80 81 81 82 82 83 84 85 86 87 88 89 90 90 90 90 89 89 87 85 83 81 79 77 75 72 71 69 68 68 68 68 68 68 68 68 68 69 69 68 68 68 68 68 68 69
82 82 82 82 82 83 83 84 84 84 84 83 82 83 83 83 84 84 84 84 84 83 82 81 80 81 82 82 82 81 81 80 80 81 81 81 82 82 83 83 83 84 84 85 86 86 86 87 87 88 89 90 91 91 91 89 87 85 82 80 77 74 72 70 69 67 65 64 64 64 64 64 64 65 65 66 66 66 65 64 64 64 63 63 63
84 84 85 85 85 85 84 84 84 85 84 84 84 84 84 85 85 85 85 86 86 85 85 84 84 84 83 82 82 82 82 82 82 83 83 83 84 85 85 85 86 86 86 87 87 86 86 86 86 87 89 90 90 90 89 87 84 82 78 75 73 70 68 66 65 63 62 61 60 60 60 60 60 61 62 63 64 63 63 61 60 59 59 59 59
85 86 86 87 88 88 88 87 86 85 85 84 84 84 84 85 86 85 86 86 87 87 87 87 87 87 85 84 83 82 81 82 82 83 84 84 84 84 85 85 86 86 87 87 86 86 85 85 85 86 87 88 88 87 85 82 80 77 73 70 68 66 64 63 62 60 59 57 56 56 56 56 57 59 59 60 60 60 59 58 57 56 56 56 56
81 83 85 87 88 89 89 89 88 87 86 85 84 84 84 85 85 85 86 86 87 87 88 89 90 89 86 85 84 82 82 82 83 83 84 83 83 83 84 84 85 86 86 86 85 85 84 83 83 84 84 83 82 80 79 76 73 70 68 65 63 62 60 59 58 56 54 53 52 52 53 54 55 56 56 56 56 55 54 53 52 52 52 52 52
75 77 80 82 84 86 87 87 87 86 86 86 85 84 82 82 82 83 84 85 86 86 88 89 90 88 85 83 82 82 82 82 83 83 84 83 83 83 83 83 84 84 84 84 83 82 82 81 80 79 78 76 75 73 71 69 66 64 63 61 59 58 57 55 53 51 50 49 50 50 51 52 52 53 53 52 51 50 49 48 47 47 47 47 47
68 71 73 74 76 78 80 81 81 82 82 83 84 83 81 79 78 80 82 83 83 84 85 86 86 85 81 79 79 79 79 80 82 82 82 81 81 81 81 81 82 82 82 81 79 79 78 76 74 72 70 69 68 67 65 62 61 60 59 58 56 55 53 51 48 46 46 46 47 48 48 48 49 49 49 47 46 45 45 44 43 43 43 43 43
64 65 67 68 69 70 71 72 73 74 75 77 78 78 78 76 75 76 78 79 78 78 79 79 80 79 76 72 72 74 77 79 79 78 76 76 76 76 76 77 77 78 77 76 74 73 71 69 67 66 65 64 63 61 59 57 57 56 56 55 53 51 48 45 43 43 43 44 44 45 45 46 45 45 44 43 42 42 42 41 41 41 41 40 40
61 62 63 64 64 64 64 65 66 67 68 70 71 72 73 74 72 72 73 73 72 72 73 73 72 70 67 64 65 69 73 74 73 70 69 69 69 70 70 71 71 71 71 70 68 66 64 62 61 61 60 59 58 56 55 54 54 54 53 51 49 46 43 41 40 40 41 41 42 42 43 43 43 42 41 40 40 40 40 39 39 39 39 39 38
57 58 59 60 60 60 60 60 60 61 63 65 66 67 70 70 69 68 69 68 66 67 68 67 64 61 59 58 61 66 67 66 64 63 63 63 63 64 65 65 65 65 65 63 61 60 58 58 57 56 55 54 54 53 52 52 52 51 49 47 44 42 39 38 38 38 39 39 39 40 40 40 40 39 39 38 38 38 37 38 37 37 37 37 37
52 53 54 55 55 55 55 55 55 56 58 61 62 64 66 66 66 66 65 65 64 64 63 61 59 57 55 56 60 62 61 59 58 59 59 60 60 61 61 60 60 61 60 58 57 56 55 54 54 52 51 51 51 50 50 50 49 47 45 42 40 38 37 36 37 37 38 37 37 38 38 38 37 37 37 36 36 36 35 35 35 35 35 35 35
48 48 49 50 50 51 51 51 50 52 54 57 59 61 62 63 63 63 63 63 63 62 59 56 55 54 54 55 57 58 57 56 55 56 56 57 57 57 57 57 57 57 56 55 54 53 52 51 50 49 49 49 48 48 47 46 45 43 41 39 37 36 35 35 36 36 36 36 36 36 35 35 34 34 34 34 34 33 32 32 31 31 32 32 32
46 45 45 45 45 46 47 47 46 47 50 53 56 59 60 60 61 61 61 60 60 58 55 54 52 52 53 54 55 55 55 54 53 53 53 53 53 53 53 54 53 53 52 52 51 50 49 48 47 47 47 46 46 45 44 42 40 39 37 36 35 34 34 35 35 35 35 35 33 32 32 32 32 31 31 30 30 29 29 28 28 27 27 28 28
44 43 43 43 43 43 43 43 42 43 45 49 53 55 57 58 58 58 58 57 55 54 53 51 49 48 50 52 52 52 52 51 51 50 49 49 49 50 51 50 49 49 49 49 48 47 47 46 45 45 44 44 43 42 40 38 37 36 35 34 33 33 34 34 34 33 33 33 31 29 29 29 28 28 27 27 26 25 25 25 25 25 25 25 25
42 42 41 41 40 40 40 40 40 41 42 45 48 51 53 54 55 55 54 53 51 50 49 47 46 47 48 49 49 50 50 49 47 46 46 46 48 48 48 47 46 46 46 46 45 45 44 43 43 42 42 41 40 38 37 36 35 34 34 33 32 32 33 33 32 31 31 30 29 27 26 25 25 24 24 23 23 22 23 23 23 23 23 22 22
39 39 38 38 38 38 38 38 38 39 40 42 44 47 49 50 51 52 51 50 48 46 45 44 45 46 47 47 47 48 47 45 43 44 44 45 46 46 45 45 44 44 43 43 43 42 42 41 40 40 40 38 37 35 35 34 33 33 33 32 31 31 32 31 30 29 28 28 26 24 23 23 22 22 21 21 21 21 21 21 21 21 21 22 22
36 36 36 35 35 35 35 36 36 37 38 39 41 43 45 47 48 48 48 46 45 44 43 43 45 45 46 46 47 46 44 41 41 42 44 44 44 43 43 42 42 41 41 41 40 40 39 39 38 38 37 36 35 34 33 33 33 32 32 31 30 30 30 30 28 27 26 25 23 22 21 21 20 19 19 20 20 19 19 19 19 19 20 21 21
33 33 33 32 32 33 33 34 34 34 34 36 37 39 42 43 45 45 44 44 44 42 42 43 44 44 45 45 44 42 40 39 40 41 42 42 42 41 40 40 39 39 39 38 38 37 37 37 37 36 35 34 33 33 33 33 32 32 31 30 29 28 28 28 26 24 23 23 22 21 20 19 18 18 19 19 19 18 17 17 17 18 18 19 20
30 30 30 29 29 30 31 31 31 31 32 33 35 37 38 40 41 42 42 41 40 40 41 42 43 43 43 42 41 39 38 38 39 40 40 40 39 39 38 38 38 37 37 37 36 36 36 36 36 34 33 33 32 32 33 32 32 31 29 28 27 27 27 26 24 22 21 21 21 20 20 18 17 18 18 18 17 16 15 15 15 16 17 18 18
27 28 28 27 27 27 27 28 28 29 30 31 32 34 36 37 38 38 38 37 37 38 40 40 40 40 40 39 39 39 38 38 38 38 38 38 38 37 36 36 36 36 36 36 35 35 35 35 34 32 32 32 32 32 32 32 31 29 28 27 26 26 25 24 22 20 20 20 20 20 19 18 18 18 17 16 15 15 14 13 14 15 15 16 16
25 26 25 25 24 24 24 25 25 26 27 29 30 31 33 34 35 35 35 35 36 37 38 37 37 37 38 38 39 39 38 37 37 37 37 36 36 35 35 36 36 36 36 35 35 35 34 33 32 32 32 32 32 32 32 31 30 28 27 25 24 24 23 23 21 20 19 20 21 20 19 18 18 18 16 15 15 14 13 12 12 13 13 13 13
23 23 23 23 22 22 22 22 22 23 25 26 28 29 30 31 32 34 34 35 35 36 36 36 36 37 38 38 38 37 36 36 36 35 35 35 35 35 36 36 36 35 35 34 34 34 32 32 31 31 32 32 32 32 31 31 29 28 26 24 23 22 21 21 21 21 20 21 21 20 19 18 18 17 16 15 14 13 12 11 11 11 11 12 12
20 20 21 21 20 20 20 20 20 21 22 24 25 27 28 29 30 31 32 33 34 34 35 35 35 35 35 35 35 35 35 34 34 35 35 35 36 36 36 36 35 35 34 34 33 32 32 31 31 31 31 32 32 31 31 30 29 27 25 23 21 20 20 21 22 22 21 21 22 21 20 19 18 17 16 15 15 13 12 11 10 10 10 11 11
18 17 18 18 18 18 18 18 18 19 20 21 23 25 26 28 29 30 31 32 32 33 33 33 33 33 34 34 34 34 33 34 34 35 35 35 35 35 35 35 34 34 33 33 32 32 31 31 31 31 31 32 31 31 30 29 28 26 24 22 20 20 21 22 23 23 23 22 22 21 20 20 19 17 16 16 15 13 12 11 10 10 10 11 11
17 16 15 16 16 16 17 17 17 17 18 19 21 22 24 25 27 28 29 30 31 32 32 32 33 33 33 33 33 33 33 33 34 34 34 34 34 34 34 33 33 33 32 32 31 31 31 31 31 31 31 31 30 30 29 29 27 26 24 22 21 21 21 22 24 24 24 23 23 22 21 21 20 18 16 15 15 14 12 11 10 10 10 10 10
16 15 14 14 14 14 15 15 15 15 16 17 19 20 22 23 25 26 27 29 30 31 31 32 32 32 32 32 32 32 32 32 32 32 33 33 33 32 32 32 32 31 31 31 31 31 31 31 31 31 31 30 30 29 29 28 27 25 24 23 22 21 22 23 25 25 25 24 24 23 22 22 21 19 17 15 16 15 14 12 11 10 10 10 10
Wind_Direction
256 255 254 254 258 261 263 264 263 263 264 265 267 269 271 274 277 279 282 283 284 284 283 282 282 282 282 282 282 281 281 281 280 279 279 279 280 280 281 284 286 288 289 290 289 285 278 270 266 264 263 263 262 262 262 261 261 262 263 263 263 262 261 260 258 256 255 254 252 250 249 248 248 247 247 248 248 248 249 250 250 251 252 254 255
260 260 260 260 260 260 257 257 258 258 260 262 264 266 268 270 273 276 280 283 285 285 285 285 284 283 283 282 283 282 282 281 280 279 279 279 281 282 284 286 288 289 290 290 288 285 280 273 266 262 261 262 263 263 262 261 260 260 261 262 263 263 262 261 260 258 255 254 253 252 251 249 248 247 246 247 248 248 249 249 250 250 251 253 254
262 263 263 262 262 261 258 256 256 258 260 261 262 264 267 269 270 273 277 279 282 284 286 286 285 284 283 283 283 282 282 281 280 278 278 279 280 283 285 288 288 289 289 287 286 283 280 276 270 263 260 261 263 264 263 263 261 260 260 260 261 262 263 263 262 261 259 256 254 252 251 251 250 249 248 247 247 248 249 249 249 249 250 251 253
264 264 263 262 261 261 260 258 259 260 261 262 263 264 266 268 269 271 273 274 275 277 278 280 281 282 282 282 282 281 280 279 278 277 278 279 280 283 286 288 288 287 286 284 282 280 277 275 272 268 263 262 263 264 264 263 262 260 259 259 259 260 261 262 262 262 261 260 258 256 254 253 252 251 250 250 249 249 249 249 249 249 250 251 252
263 263 262 262 261 260 260 260 260 260 260 261 263 265 267 268 270 270 271 270 270 272 273 275 277 278 279 279 278 277 276 276 276 276 278 280 282 284 287 288 286 285 283 281 279 277 274 272 271 269 267 265 264 264 264 263 262 261 259 258 257 258 258 259 260 260 260 260 260 260 258 257 255 253 252 252 252 251 251 250 251 251 251 251 252
262 261 261 261 260 260 260 260 259 258 258 259 260 263 265 266 267 267 267 267 266 266 267 269 271 273 274 275 275 274 274 274 274 275 278 281 284 287 287 286 285 283 281 278 276 275 274 272 271 270 269 268 266 265 264 263 261 260 259 258 257 256 257 257 258 258 258 258 259 259 260 259 259 257 256 254 253 253 253 252 252 252 251 251 252
261 261 261 260 260 260 259 259 258 257 258 258 259 260 261 261 262 262 263 263 263 262 262 263 265 267 269 271 273 274 274 274 275 276 279 282 285 286 284 282 281 279 277 276 275 274 274 273 273 271 270 269 268 267 266 265 263 260 257 257 256 256 257 258 258 258 258 257 257 257 258 258 259 259 259 258 256 255 254 253 253 253 253 252 252
262 262 261 261 260 260 259 258 257 256 256 257 258 258 259 260 261 261 261 262 263 263 263 263 265 267 269 271 273 274 274 275 277 279 281 283 283 282 280 279 277 275 274 273 273 273 273 273 272 271 270 270 271 270 268 267 266 262 259 257 256 256 257 257 258 258 258 258 257 257 256 256 257 257 258 258 258 257 256 255 254 253 254 254 253
261 261 261 261 261 260 259 258 257 256 256 257 257 257 258 259 261 262 262 262 262 263 264 265 266 268 271 274 275 276 277 279 280 282 284 284 283 280 278 277 275 274 273 271 271 271 271 272 272 270 269 269 270 271 271 270 269 266 262 259 258 258 258 258 257 257 257 257 257 257 257 256 256 256 256 256 257 257 257 257 256 255 254 254 254
259 259 260 260 260 259 259 259 259 259 258 258 258 259 260 260 260 262 264 264 264 265 266 268 269 270 272 274 275 276 279 279 281 284 285 285 282 278 275 275 275 274 273 271 271 272 273 274 272 269 267 267 266 268 270 271 272 270 267 264 262 261 261 260 259 258 258 257 256 256 256 256 256 256 256 256 256 257 257 257 257 257 256 255 254
258 257 257 257 258 258 259 259 260 260 260 260 260 262 263 263 262 263 265 267 269 270 270 270 271 272 272 272 273 275 275 275 278 282 284 284 283 279 274 273 273 272 271 270 271 273 273 273 272 271 269 268 267 267 268 269 270 270 270 268 266 264 263 263 262 261 260 259 258 257 256 256 256 256 256 257 257 257 257 258 258 258 258 257 256
256 256 256 256 256 257 257 258 259 259 260 261 261 261 262 262 263 264 265 267 270 272 272 273 273 272 271 271 272 273 273 272 275 278 281 283 283 280 277 274 273 272 271 271 272 273 274 274 273 273 272 272 272 272 272 271 269 268 268 268 267 267 266 265 264 263 262 261 260 259 259 258 257 257 256 256 257 257 257 257 258 258 259 259 258
257 256 256 256 256 256 256 256 257 258 258 259 259 258 258 260 262 264 264 266 268 271 273 274 274 273 272 271 271 271 271 271 272 275 278 280 281 280 279 277 276 274 273 272 273 275 276 276 275 275 275 276 277 278 278 277 275 272 270 267 267 267 267 267 266 265 263 262 261 261 260 260 259 258 258 257 257 257 257 257 257 257 257 258 258
257 257 257 257 257 257 257 256 256 257 258 258 258 258 258 260 262 264 265 267 268 269 271 272 273 273 272 272 272 271 271 271 272 274 276 278 279 279 279 279 278 277 275 274 275 276 277 277 277 277 278 279 280 281 282 282 281 279 277 274 271 269 267 267 267 267 266 265 263 262 261 261 260 259 259 258 258 258 258 258 257 257 257 257 258
256 256 256 257 257 257 257 257 257 257 257 257 256 257 258 259 261 263 265 267 267 268 269 269 269 269 269 269 270 270 271 271 271 272 273 275 276 278 279 279 279 278 277 276 276 277 278 278 278 278 278 279 280 280 280 280 280 281 281 280 278 276 273 271 269 268 267 267 266 264 263 262 261 261 260 260 259 258 258 258 258 258 258 258 258
255 255 255 255 256 256 257 256 256 255 255 255 255 255 257 259 261 263 264 265 265 267 267 267 267 266 265 265 265 267 268 269 270 270 271 272 273 275 277 278 278 278 277 277 277 278 278 278 278 278 278 279 279 279 279 279 279 279 279 279 279 279 278 277 274 271 269 267 266 265 264 264 263 263 262 262 261 260 259 259 259 259 259 258 258
256 255 254 254 254 255 255 255 255 255 255 255 254 254 255 257 260 262 263 264 264 265 266 266 266 266 265 264 264 264 265 266 268 269 270 271 272 273 274 276 276 276 276 276 276 277 278 278 278 278 278 278 279 279 278 278 278 279 278 278 278 278 277 277 277 276 274 271 269 266 264 263 263 263 263 263 263 262 262 261 261 260 259 259 259
259 257 255 254 253 253 253 254 255 255 255 255 255 255 255 256 258 260 262 263 263 264 265 265 265 265 265 265 264 264 264 265 267 268 269 270 271 272 272 273 274 274 275 275 275 276 276 277 276 276 277 277 277 277 277 277 277 278 278 278 277 277 276 275 275 274 274 274 273 271 268 265 263 262 261 261 262 262 263 263 263 262 262 261 260
260 259 258 256 255 253 253 254 254 255 255 256 256 256 256 257 257 258 259 261 262 262 263 264 264 264 264 264 264 264 264 265 266 267 268 269 270 271 271 271 272 272 273 273 273 274 275 275 275 275 276 276 276 277 277 277 277 277 278 278 278 278 277 276 275 274 273 272 272 272 271 270 268 265 263 261 261 261 261 261 262 263 263 262 262
259 258 258 258 257 256 255 255 255 255 255 255 256 256 257 257 257 257 257 258 259 260 261 261 262 262 262 262 263 263 263 264 265 266 267 268 269 269 269 269 269 269 270 270 271 271 272 273 274 275 276 276 277 277 277 278 278 279 279 280 279 279 279 278 277 276 274 273 272 271 271 271 271 269 267 265 262 261 260 259 259 260 260 261 262
260 259 258 258 258 258 258 257 257 257 256 256 256 257 257 257 257 256 257 257 258 259 260 260 260 261 261 262 262 263 263 263 264 265 266 266 266 266 266 266 266 267 267 268 269 270 271 272 274 275 276 277 277 278 279 279 280 280 280 280 280 280 280 280 279 278 277 276 275 273 272 271 270 269 269 268 266 264 262 260 258 258 258 258 259
262 261 260 259 259 258 258 258 258 258 258 258 258 257 257 257 257 257 257 258 258 259 260 260 261 261 262 262 263 263 263 264 264 265 265 265 265 265 265 265 265 266 267 267 268 269 271 273 274 276 277 278 278 279 279 280 280 281 281 281 282 282 281 281 280 279 279 278 277 275 274 272 271 270 269 269 268 267 266 264 262 260 258 257 256
261 262 262 261 261 260 259 259 259 258 259 259 259 259 258 259 259 259 258 258 258 258 259 260 261 261 262 262 262 263 263 264 265 265 266 267 267 267 267 266 267 267 267 268 268 270 271 273 275 276 277 277 278 278 279 280 281 281 282 282 282 282 282 282 282 281 280 279 277 276 275 274 273 272 271 270 269 269 268 267 265 264 262 260 258
259 260 261 261 261 261 260 260 260 259 259 259 259 259 260 260 260 260 260 259 258 258 258 258 259 260 261 261 261 262 263 264 265 265 266 267 267 267 267 267 267 267 267 268 268 269 271 272 274 275 276 277 277 278 279 280 281 282 282 282 283 283 283 283 282 281 280 279 278 276 275 275 274 274 273 273 272 271 270 269 268 266 265 263 262
257 258 259 260 261 261 260 260 260 260 260 259 259 260 260 261 261 261 261 261 260 259 258 258 258 259 259 260 261 261 263 264 264 265 265 265 266 266 266 266 266 267 268 268 269 270 271 272 273 275 276 277 278 279 280 281 281 281 282 282 283 283 283 282 281 281 280 279 278 277 277 276 276 275 275 274 274 273 272 271 270 269 267 266 264
260 259 258 258 259 260 261 261 260 260 260 260 260 260 261 261 261 262 262 262 262 261 260 259 258 258 258 259 260 261 262 263 264 264 265 265 265 266 266 266 267 268 268 269 270 271 272 273 274 276 277 278 279 279 280 280 281 281 282 282 283 282 282 281 280 280 280 279 279 278 278 277 277 277 276 276 275 275 274 273 272 270 269 267 266
263 262 262 261 260 259 260 260 260 260 260 260 260 260 260 261 261 261 262 263 263 263 262 261 259 258 257 258 259 260 260 261 262 263 264 264 265 265 266 267 267 268 268 269 270 271 272 273 274 275 276 277 277 278 279 279 280 281 282 282 282 281 280 280 280 280 280 280 279 279 278 278 277 277 277 276 276 275 275 274 273 272 271 270 269
263 263 263 263 263 262 262 261 260 260 260 260 260 260 260 260 261 261 262 262 263 263 263 262 262 261 260 259 259 259 259 260 261 261 262 262 263 264 265 266 267 267 268 268 269 270 270 271 272 273 274 275 275 276 278 279 280 281 281 281 280 280 280 281 281 281 281 280 280 279 278 277 277 276 275 274 274 275 275 275 275 275 274 274 273
262 262 262 263 263 264 264 263 263 262 261 261 261 261 261 261 261 261 261 262 262 262 263 263 263 262 261 261 261 261 261 261 261 261 261 262 262 263 264 265 266 267 267 268 268 269 270 271 271 272 272 273 274 276 277 278 279 279 279 279 279 280 281 281 281 281 281 281 280 279 278 277 276 274 274 274 274 275 275 276 277 277 276 275 274
261 261 261 261 262 262 263 263 263 263 263 262 262 261 260 260 261 261 261 261 261 262 262 262 262 261 261 262 262 263 263 263 263 263 263 263 264 264 265 265 266 267 267 268 269 270 270 271 271 271 271 272 274 275 276 276 277 277 278 278 279 280 280 281 281 281 281 281 280 278 277 276 275 275 275 275 275 276 277 278 277 277 276 275 274
263 262 261 260 260 260 261 261 262 262 263 263 263 262 261 260 260 260 261 261 260 260 260 260 261 261 261 261 262 263 263 263 264 264 264 265 265 266 266 266 267 267 268 269 269 270 270 270 270 271 272 273 273 273 274 274 275 276 277 278 279 279 280 280 281 281 281 280 278 277 276 276 276 276 277 277 278 279 280 279 278 276 276 275 274
263 262 260 259 258 258 258 259 259 259 260 261 262 262 261 260 259 259 259 259 259 258 259 259 260 261 260 260 261 262 263 263 263 263 263 264 265 266 266 266 267 267 267 268 268 269 269 270 271 272 272 272 272 272 273 274 275 275 276 277 278 279 280 280 281 280 279 277 276 276 276 276 276 277 278 280 281 282 281 280 279 279 278 276 275
261 260 259 258 257 256 256 256 256 256 257 257 258 259 260 259 258 257 257 257 257 258 258 259 260 260 260 260 260 262 262 262 261 262 263 264 264 265 265 265 265 266 266 266 267 268 269 270 271 271 271 270 271 272 273 274 274 275 277 278 278 279 279 280 279 278 276 275 275 276 277 277 278 279 281 282 282 282 282 282 281 280 279 277 276
261 260 259 258 257 256 255 255 254 254 254 255 255 256 257 257 257 257 256 256 257 257 258 258 259 259 260 260 260 260 260 260 261 262 263 263 263 263 263 263 263 264 265 266 267 267 268 269 269 269 269 270 270 271 273 273 274 275 277 278 279 280 279 278 277 275 274 274 275 276 277 278 279 281 282 282 282 281 281 281 280 279 279 279 278
261 260 260 260 259 258 256 255 254 253 252 253 253 253 254 255 256 256 256 257 257 257 257 258 258 259 260 260 259 259 259 260 261 261 261 262 262 261 261 262 262 263 264 265 266 267 267 267 267 267 268 269 270 271 272 273 274 275 277 278 279 279 278 277 276 274 274 275 275 276 277 278 280 281 281 281 280 280 279 279 279 280 280 279 279
263 261 260 260 259 258 257 255 254 253 252 251 251 251 252 253 254 255 255 256 256 255 255 256 257 258 257 257 257 258 258 259 259 260 260 260 261 261 261 262 262 263 263 264 265 265 265 265 266 267 267 268 269 270 271 273 274 275 277 278 278 277 276 276 275 275 275 275 276 277 278 279 280 280 280 279 279 279 279 279 280 280 279 279 278
266 264 262 261 260 259 257 255 252 250 250 249 250 250 250 250 251 252 253 253 254 254 254 254 255 255 255 255 255 257 257 258 258 258 258 259 260 261 261 262 262 262 262 262 262 263 263 264 265 266 266 267 268 269 271 272 273 275 276 276 276 276 276 276 276 276 276 276 276 277 279 279 279 278 278 278 278 279 279 279 278 278 278 278 278
266 265 263 261 260 258 257 255 252 249 247 246 247 248 248 249 249 250 250 251 252 253 253 253 252 252 253 253 254 255 256 256 256 257 257 258 259 260 260 260 260 260 260 260 261 261 262 263 264 265 266 267 268 269 270 271 273 273 274 274 274 276 277 277 277 277 278 277 277 278 278 278 277 277 277 277 277 278 278 278 278 277 277 277 277
265 263 262 260 258 256 255 253 251 248 245 244 244 245 246 247 248 249 250 250 251 251 251 251 251 250 251 252 253 254 254 255 255 256 256 257 257 258 258 258 258 258 258 258 259 260 261 262 263 264 265 266 266 268 269 270 271 272 272 272 274 276 277 277 277 278 278 279 279 279 278 277 276 276 276 276 277 278 278 278 278 277 277 276 276
265 264 263 261 259 257 255 253 250 247 244 243 243 244 245 246 247 248 249 250 250 250 249 249 248 247 248 249 250 251 252 252 253 254 255 255 255 255 256 256 256 256 256 256 257 259 260 261 262 263 264 265 266 267 268 269 270 271 272 273 275 277 277 277 278 278 279 279 279 278 278 277 277 277 277 278 279 279 279 280 280 281 280 279 278
266 265 264 262 260 258 256 254 251 247 244 242 241 242 243 245 245 246 247 247 247 246 245 244 244 244 245 246 247 248 249 250 251 252 252 252 253 254 254 254 254 254 254 255 256 257 259 260 261 262 263 264 266 267 267 268 269 271 273 274 276 277 277 278 278 279 279 279 279 278 278 277 277 278 279 280 280 280 280 281 281 281 282 281 280
265 264 262 261 260 258 255 253 250 248 246 244 242 241 242 243 244 245 246 246 246 244 241 240 240 241 242 243 245 247 249 249 249 249 250 250 251 251 252 252 252 253 253 254 255 256 257 258 259 260 262 263 265 266 267 268 270 271 273 275 276 277 277 278 278 279 279 279 278 278 277 276 277 279 279 279 279 278 279 279 279 279 279 280 279
267 265 263 261 259 257 255 252 250 248 246 244 243 241 241 242 243 243 244 244 243 242 240 239 239 239 240 242 245 247 247 247 246 246 247 248 249 249 250 251 251 251 252 253 254 255 255 256 258 259 261 263 264 266 267 269 270 271 273 275 276 276 277 277 278 278 278 278 277 276 275 275 276 275 274 274 274 274 275 276 277 278 278 278 279
269 268 266 263 261 258 256 254 251 248 245 243 242 241 241 240 241 242 242 242 242 241 240 239 239 239 240 242 244 245 244 243 243 244 245 246 246 247 248 248 249 250 250 251 252 253 254 255 257 259 261 262 264 266 267 268 270 272 273 275 276 276 276 276 276 276 276 275 274 273 273 273 271 268 267 268 270 271 273 275 277 278 279 279 280
270 269 268 265 263 260 257 255 252 248 245 242 241 240 240 239 240 240 240 240 239 239 239 239 239 239 239 240 241 241 241 240 241 242 243 244 244 245 246 246 247 248 248 249 250 252 253 255 257 258 260 261 263 265 267 268 270 271 273 274 275 275 275 275 275 274 272 270 269 269 270 270 267 264 263 264 265 267 270 274 278 281 281 281 280
270 269 267 265 263 261 258 255 251 248 245 242 240 239 239 238 238 237 236 234 234 235 237 237 237 237 237 237 237 237 238 238 239 240 241 242 242 243 243 244 245 246 247 248 250 251 253 255 256 257 259 260 262 264 266 268 269 271 271 272 272 271 272 272 272 271 268 265 264 265 265 264 263 262 261 261 262 264 267 273 279 283 283 281 280
271 269 268 265 262 259 256 253 250 246 244 242 240 239 237 237 237 236 234 232 231 231 232 233 233 233 234 234 235 236 236 237 237 238 239 240 240 241 241 243 244 245 246 247 249 250 251 253 254 255 257 259 261 263 265 267 268 269 269 268 268 268 268 268 268 266 263 260 260 261 260 259 260 260 261 260 260 261 267 274 280 283 283 283 282
270 268 268 266 262 258 253 250 247 244 241 239 238 236 235 234 234 234 234 233 231 231 231 232 232 232 233 234 234 234 235 235 236 236 237 238 238 239 240 241 242 243 244 245 246 248 249 250 252 254 256 258 259 261 263 265 265 266 266 265 265 265 265 264 263 261 258 256 256 256 255 255 256 257 257 257 257 260 266 273 277 280 282 284 285
268 265 264 264 262 259 254 250 246 242 239 237 235 234 233 232 231 231 231 231 230 230 229 230 230 230 231 231 232 232 233 233 234 235 235 236 237 238 239 240 241 242 243 243 244 246 247 248 250 252 254 256 257 259 260 261 261 262 262 262 262 262 261 259 258 256 254 253 252 252 251 252 254 253 253 254 256 258 264 270 274 278 283 286 285
267 263 259 257 256 254 251 249 246 242 238 235 234 233 231 231 230 230 230 229 229 228 228 227 228 228 229 229 230 231 231 232 233 234 235 236 237 238 239 239 240 240 241 242 243 245 246 248 249 250 251 253 254 255 255 256 257 258 259 259 259 258 257 254 252 252 251 250 248 247 248 251 253 251 250 252 254 256 260 264 270 277 284 287 287
268 265 259 254 250 246 244 242 240 238 234 232 231 231 230 228 227 227 226 227 227 227 227 227 227 228 228 229 229 230 231 232 233 234 235 236 237 237 238 238 239 240 241 242 243 244 245 246 247 248 248 249 249 250 250 251 253 254 255 256 255 254 252 250 249 249 249 248 245 243 245 248 251 250 248 248 252 255 257 259 264 272 281 286 287
Height
10547 10546 10547 10549 10548 10543 10539 10534 10531 10532 10531 10531 10530 10529 10528 10529 10529 10529 10531 10532 10534 10537 10540 10542 10543 10544 10544 10545 10545 10545 10545 10545 10545 10546 10546 10547 10548 10549 10550 10550 10551 10551 10551 10552 10552 10552 10553 10553 10553 10554 10554 10555 10555 10556 10556 10557 10557 10558 10559 10559 10561 10562 10563 10564 10565 10566 10567 10567 10569 10570 10571 10572 10574 10576 10577 10579 10580 10582 10583 10585 10587 10589 10590 10591 10592
10539 10539 10540 10541 10540 10537 10531 10524 10523 10525 10525 10525 10525 10525 10525 10526 10526 10525 10525 10525 10525 10526 10529 10532 10534 10535 10536 10537 10537 10538 10538 10538 10538 10539 10539 10540 10541 10542 10543 10544 10544 10544 10544 10544 10544 10544 10545 10546 10546 10547 10548 10549 10549 10550 10550 10551 10552 10552 10553 10554 10555 10556 10557 10559 10560 10561 10562 10562 10563 10563 10564 10565 10567 10568 10570 10572 10573 10575 10577 10578 10580 10582 10583 10584 10585
10532 10532 10533 10534 10533 10529 10523 10518 10516 10519 10521 10520 10520 10520 10521 10521 10522 10522 10521 10521 10520 10520 10520 10522 10524 10525 10527 10528 10529 10530 10530 10531 10531 10532 10533 10533 10534 10535 10536 10537 10537 10537 10537 10537 10537 10537 10538 10539 10539 10540 10541 10542 10543 10543 10544 10545 10546 10546 10547 10548 10549 10550 10551 10553 10554 10556 10557 10557 10557 10558 10558 10559 10560 10561 10563 10564 10566 10568 10569 10571 10573 10574 10576 10577 10578
10526 10526 10526 10527 10527 10523 10517 10513 10514 10516 10516 10514 10512 10514 10515 10516 10516 10517 10517 10517 10517 10517 10516 10514 10515 10517 10518 10519 10520 10521 10522 10523 10523 10524 10525 10527 10528 10529 10530 10530 10530 10530 10529 10529 10530 10530 10530 10531 10532 10533 10534 10535 10536 10536 10537 10538 10539 10540 10541 10541 10542 10543 10545 10546 10547 10549 10550 10551 10552 10552 10553 10553 10554 10555 10556 10557 10559 10560 10562 10563 10564 10566 10568 10569 10570
10519 10519 10519 10519 10520 10518 10514 10511 10512 10513 10510 10506 10505 10506 10509 10510 10510 10510 10510 10512 10513 10513 10511 10509 10509 10510 10511 10511 10511 10512 10513 10513 10514 10516 10518 10520 10522 10523 10523 10523 10523 10523 10523 10522 10523 10523 10524 10525 10526 10526 10527 10527 10528 10529 10530 10530 10532 10533 10534 10534 10535 10536 10537 10538 10540 10541 10542 10544 10545 10546 10546 10547 10548 10549 10550 10551 10552 10553 10554 10555 10556 10558 10560 10561 10563
10511 10512 10512 10512 10513 10512 10510 10507 10508 10508 10504 10501 10500 10501 10503 10504 10503 10502 10502 10504 10506 10507 10506 10505 10505 10505 10505 10503 10502 10502 10503 10504 10505 10508 10511 10514 10516 10516 10516 10516 10515 10515 10515 10516 10516 10516 10517 10517 10518 10520 10520 10520 10520 10521 10522 10523 10524 10525 10526 10527 10527 10528 10529 10531 10532 10533 10535 10536 10537 10538 10539 10540 10541 10542 10543 10544 10545 10545 10546 10547 10548 10549 10551 10553 10554
10502 10503 10503 10504 10504 10505 10503 10502 10502 10502 10499 10497 10497 10497 10496 10497 10496 10495 10494 10495 10497 10499 10500 10500 10499 10500 10500 10498 10495 10494 10493 10493 10494 10498 10504 10509 10510 10510 10509 10508 10508 10508 10508 10508 10508 10509 10509 10510 10510 10511 10512 10513 10513 10513 10514 10515 10516 10517 10519 10519 10520 10521 10522 10523 10524 10526 10527 10528 10530 10531 10531 10532 10533 10534 10534 10535 10536 10537 10538 10539 10540 10541 10542 10544 10546
10494 10494 10494 10495 10495 10496 10495 10495 10495 10495 10495 10495 10494 10492 10490 10490 10489 10487 10486 10487 10488 10490 10492 10493 10494 10493 10493 10493 10489 10485 10483 10483 10484 10487 10495 10503 10505 10502 10501 10500 10500 10500 10500 10501 10501 10502 10502 10503 10503 10504 10504 10505 10505 10505 10505 10506 10507 10509 10510 10511 10512 10513 10514 10515 10517 10518 10519 10520 10521 10522 10523 10524 10524 10525 10525 10526 10527 10528 10529 10531 10533 10534 10535 10536 10537
10487 10486 10486 10486 10486 10487 10487 10487 10488 10488 10490 10490 10488 10485 10485 10485 10482 10477 10477 10479 10481 10482 10483 10486 10489 10488 10487 10486 10482 10476 10472 10474 10476 10478 10483 10492 10497 10495 10493 10492 10492 10492 10492 10493 10494 10495 10495 10496 10496 10497 10497 10498 10498 10498 10498 10498 10499 10501 10502 10503 10505 10506 10506 10507 10508 10509 10511 10512 10513 10513 10514 10515 10515 10516 10516 10517 10517 10518 10520 10521 10523 10525 10526 10528 10529
10477 10478 10478 10478 10478 10477 10478 10479 10479 10481 10483 10483 10481 10479 10480 10479 10475 10471 10470 10471 10474 10476 10477 10479 10482 10482 10481 10479 10475 10470 10466 10464 10466 10469 10473 10480 10486 10487 10486 10485 10484 10484 10485 10485 10486 10487 10488 10488 10488 10489 10490 10490 10491 10492 10492 10492 10492 10493 10493 10494 10497 10498 10497 10498 10500 10502 10502 10502 10503 10503 10504 10505 10506 10507 10507 10507 10509 10509 10511 10512 10513 10515 10517 10518 10519
10469 10469 10470 10469 10469 10469 10469 10471 10472 10473 10474 10475 10475 10475 10473 10470 10468 10466 10464 10464 10467 10469 10471 10473 10475 10475 10473 10472 10469 10467 10464 10460 10459 10460 10463 10467 10474 10478 10479 10479 10478 10478 10478 10478 10479 10480 10480 10480 10480 10481 10481 10482 10483 10484 10485 10485 10485 10486 10486 10487 10488 10488 10489 10490 10492 10494 10494 10493 10493 10494 10495 10495 10496 10497 10497 10498 10499 10500 10502 10503 10504 10505 10506 10507 10508
10460 10461 10461 10461 10461 10461 10463 10465 10465 10466 10467 10467 10467 10468 10464 10461 10461 10460 10459 10460 10461 10461 10462 10465 10467 10467 10466 10465 10463 10461 10460 10457 10455 10454 10455 10458 10462 10466 10469 10471 10472 10472 10471 10471 10471 10472 10472 10473 10473 10473 10473 10473 10474 10475 10476 10477 10477 10478 10479 10480 10480 10480 10481 10482 10483 10484 10484 10483 10483 10485 10486 10486 10486 10487 10487 10487 10489 10490 10492 10493 10494 10495 10495 10496 10496
10451 10452 10453 10453 10453 10454 10455 10457 10457 10458 10458 10457 10457 10456 10453 10452 10454 10453 10453 10455 10457 10456 10455 10456 10458 10458 10458 10458 10457 10456 10454 10453 10452 10450 10450 10451 10453 10455 10459 10461 10463 10464 10464 10463 10463 10463 10464 10464 10465 10465 10465 10465 10466 10466 10467 10467 10468 10469 10470 10471 10472 10473 10474 10474 10474 10473 10473 10473 10474 10475 10476 10476 10475 10476 10476 10477 10478 10480 10481 10482 10483 10483 10484 10484 10485
10442 10442 10443 10443 10443 10444 10446 10448 10449 10449 10449 10449 10449 10446 10444 10446 10446 10445 10446 10449 10450 10450 10450 10450 10450 10449 10449 10449 10449 10449 10448 10448 10447 10445 10444 10444 10445 10447 10449 10452 10454 10455 10455 10455 10455 10455 10455 10456 10456 10457 10457 10457 10458 10458 10458 10458 10458 10459 10460 10461 10463 10464 10465 10465 10465 10464 10464 10463 10464 10465 10465 10464 10464 10465 10465 10466 10467 10469 10470 10470 10470 10472 10473 10473 10474
10433 10434 10434 10434 10434 10434 10436 10437 10439 10439 10439 10440 10441 10438 10437 10438 10438 10437 10439 10441 10442 10443 10443 10443 10443 10442 10442 10441 10441 10440 10440 10440 10440 10439 10439 10438 10438 10439 10441 10443 10445 10446 10446 10447 10447 10447 10447 10447 10448 10448 10449 10450 10450 10450 10450 10450 10450 10450 10450 10451 10451 10452 10454 10455 10455 10455 10454 10453 10453 10454 10454 10453 10453 10454 10454 10454 10455 10456 10457 10458 10458 10460 10462 10463 10463
10424 10425 10425 10426 10426 10426 10426 10427 10428 10429 10429 10429 10431 10430 10430 10430 10429 10429 10431 10433 10433 10434 10435 10435 10435 10435 10435 10435 10434 10433 10433 10432 10432 10433 10433 10433 10433 10433 10434 10435 10436 10437 10438 10438 10438 10439 10439 10439 10440 10440 10440 10441 10441 10441 10441 10441 10441 10441 10441 10442 10442 10442 10442 10442 10443 10443 10443 10443 10443 10443 10443 10443 10443 10443 10443 10442 10442 10443 10444 10446 10446 10448 10450 10451 10451
10414 10415 10416 10417 10417 10417 10416 10416 10417 10418 10419 10420 10421 10422 10422 10422 10421 10421 10423 10424 10425 10425 10425 10425 10425 10425 10425 10426 10426 10425 10425 10425 10425 10426 10427 10428 10428 10428 10428 10429 10429 10430 10430 10430 10430 10431 10431 10431 10432 10431 10431 10431 10431 10432 10432 10431 10431 10431 10431 10431 10432 10432 10432 10431 10431 10430 10430 10430 10430 10430 10431 10431 10432 10431 10431 10430 10430 10430 10432 10433 10434 10436 10438 10439 10439
10403 10404 10406 10407 10407 10407 10407 10407 10408 10409 10410 10410 10410 10412 10413 10413 10414 10414 10414 10415 10415 10415 10415 10415 10415 10415 10415 10415 10416 10416 10416 10416 10417 10418 10419 10420 10421 10422 10422 10422 10422 10422 10423 10423 10423 10423 10424 10423 10423 10423 10422 10422 10422 10422 10422 10422 10421 10421 10421 10421 10421 10421 10421 10420 10420 10419 10418 10417 10416 10416 10416 10417 10418 10418 10418 10418 10418 10418 10420 10421 10421 10423 10425 10426 10427
10391 10393 10394 10396 10397 10398 10399 10399 10399 10400 10400 10400 10400 10401 10403 10404 10405 10406 10405 10405 10405 10406 10405 10405 10405 10405 10405 10405 10405 10405 10406 10407 10408 10409 10411 10411 10412 10413 10414 10414 10414 10415 10415 10415 10416 10415 10415 10414 10414 10413 10413 10412 10412 10412 10412 10412 10411 10411 10410 10409 10409 10409 10408 10408 10407 10407 10406 10405 10403 10402 10402 10402 10403 10404 10405 10406 10406 10407 10408 10408 10409 10410 10411 10413 10414
10380 10382 10384 10385 10386 10387 10388 10389 10390 10390 10390 10391 10391 10392 10392 10393 10394 10395 10395 10395 10396 10396 10396 10396 10395 10395 10394 10394 10395 10396 10396 10398 10399 10400 10402 10403 10403 10404 10405 10405 10406 10406 10407 10407 10407 10407 10406 10405 10405 10404 10404 10403 10403 10402 10402 10401 10400 10399 10398 10397 10396 10395 10395 10394 10393 10392 10392 10391 10391 10390 10390 10389 10389 10389 10390 10391 10391 10392 10394 10395 10396 10397 10398 10400 10400
10370 10372 10374 10375 10376 10377 10378 10378 10380 10380 10380 10382 10383 10383 10383 10383 10383 10384 10384 10385 10387 10387 10387 10387 10386 10385 10385 10386 10386 10387 10387 10388 10390 10391 10393 10394 10394 10394 10395 10395 10396 10397 10398 10399 10399 10398 10397 10397 10396 10396 10395 10394 10393 10392 10391 10390 10389 10388 10387 10385 10384 10383 10382 10380 10379 10378 10377 10378 10378 10377 10377 10376 10375 10375 10375 10375 10376 10376 10378 10379 10380 10382 10384 10387 10387
10360 10361 10363 10365 10366 10367 10367 10368 10369 10370 10371 10372 10373 10373 10373 10373 10373 10374 10375 10376 10378 10379 10378 10378 10378 10377 10378 10378 10378 10379 10379 10380 10381 10383 10384 10384 10385 10385 10386 10386 10387 10388 10389 10390 10390 10390 10389 10388 10387 10386 10385 10384 10383 10382 10380 10378 10377 10376 10374 10373 10372 10370 10368 10367 10365 10365 10365 10365 10364 10363 10362 10362 10361 10361 10361 10361 10361 10362 10363 10363 10364 10366 10369 10372 10373
10350 10351 10351 10353 10355 10356 10356 10357 10358 10360 10361 10362 10361 10360 10360 10362 10363 10364 10365 10367 10368 10369 10369 10369 10369 10369 10368 10368 10369 10369 10370 10372 10373 10375 10376 10377 10377 10377 10377 10378 10378 10379 10380 10381 10381 10381 10380 10379 10378 10377 10376 10374 10373 10371 10369 10368 10366 10364 10363 10361 10359 10357 10356 10354 10354 10353 10353 10352 10351 10350 10348 10347 10347 10347 10347 10348 10348 10348 10349 10349 10350 10351 10354 10355 10357
10341 10341 10341 10341 10342 10343 10344 10346 10347 10349 10350 10351 10350 10349 10349 10351 10352 10353 10353 10355 10356 10357 10358 10359 10359 10359 10358 10357 10357 10358 10360 10363 10365 10367 10368 10368 10368 10369 10369 10369 10369 10370 10371 10371 10372 10372 10371 10370 10369 10367 10366 10364 10362 10360 10359 10357 10356 10353 10351 10349 10348 10346 10345 10344 10343 10342 10341 10340 10338 10337 10335 10335 10335 10335 10335 10335 10335 10335 10335 10336 10336 10337 10339 10340 10341
10331 10332 10331 10331 10330 10330 10332 10334 10336 10337 10337 10339 10340 10339 10338 10339 10340 10340 10341 10342 10343 10345 10347 10348 10348 10348 10347 10346 10347 10349 10351 10353 10355 10357 10358 10358 10359 10359 10359 10358 10359 10360 10361 10362 10362 10362 10361 10361 10359 10357 10355 10353 10351 10349 10348 10346 10344 10342 10340 10339 10338 10336 10335 10333 10332 10330 10329 10328 10327 10326 10324 10324 10324 10323 10323 10323 10322 10322 10322 10323 10323 10323 10324 10326 10327
10318 10319 10320 10320 10319 10319 10319 10321 10323 10324 10325 10327 10329 10329 10328 10328 10328 10328 10329 10330 10331 10333 10334 10336 10336 10336 10335 10335 10337 10339 10342 10344 10345 10346 10347 10348 10348 10348 10348 10348 10349 10350 10351 10351 10351 10351 10351 10351 10349 10347 10344 10342 10340 10338 10336 10334 10332 10332 10331 10330 10328 10326 10324 10322 10321 10320 10319 10318 10317 10316 10315 10314 10313 10313 10312 10312 10311 10310 10310 10310 10310 10310 10311 10313 10314
10304 10304 10305 10305 10306 10307 10307 10308 10310 10310 10312 10315 10317 10317 10317 10317 10317 10317 10317 10318 10319 10320 10321 10322 10323 10322 10322 10324 10327 10330 10332 10334 10336 10337 10338 10338 10338 10338 10338 10338 10340 10341 10341 10341 10341 10341 10341 10340 10339 10337 10334 10331 10328 10326 10324 10323 10322 10322 10321 10320 10318 10316 10314 10313 10312 10311 10310 10309 10308 10307 10306 10305 10304 10303 10302 10301 10300 10298 10298 10299 10299 10299 10299 10301 10302
10289 10290 10290 10289 10290 10291 10292 10294 10296 10296 10299 10302 10303 10303 10305 10305 10305 10306 10306 10306 10306 10306 10307 10308 10308 10308 10310 10313 10316 10318 10321 10323 10325 10326 10326 10327 10328 10328 10328 10329 10330 10330 10330 10330 10330 10331 10331 10330 10329 10327 10324 10320 10317 10316 10315 10314 10313 10312 10311 10309 10308 10306 10305 10304 10303 10302 10302 10301 10300 10298 10297 10296 10295 10293 10292 10290 10289 10288 10288 10288 10289 10290 10290 10291 10291
10275 10277 10277 10275 10275 10275 10275 10277 10280 10282 10284 10287 10288 10290 10292 10292 10292 10294 10294 10294 10293 10293 10294 10295 10294 10294 10297 10300 10302 10306 10309 10311 10313 10313 10314 10316 10317 10318 10318 10319 10319 10319 10318 10319 10319 10320 10320 10320 10318 10316 10312 10310 10308 10308 10307 10306 10304 10303 10301 10300 10299 10298 10297 10296 10295 10294 10293 10293 10291 10290 10288 10287 10285 10283 10282 10281 10280 10279 10280 10280 10282 10282 10282 10281 10280
10262 10263 10263 10262 10261 10260 10260 10262 10264 10266 10268 10270 10273 10276 10278 10279 10280 10281 10281 10281 10281 10281 10282 10282 10279 10279 10284 10288 10290 10294 10297 10299 10300 10301 10302 10304 10306 10307 10307 10308 10307 10307 10306 10307 10308 10309 10309 10308 10306 10304 10302 10301 10301 10300 10298 10296 10295 10294 10293 10292 10291 10290 10289 10288 10287 10286 10285 10284 10283 10281 10279 10277 10275 10274 10273 10273 10272 10272 10273 10274 10274 10274 10272 10272 10271
10247 10248 10247 10247 10247 10246 10246 10248 10251 10252 10253 10254 10255 10258 10262 10265 10267 10267 10267 10268 10268 10268 10268 10266 10265 10268 10273 10278 10280 10283 10286 10288 10289 10289 10290 10291 10293 10295 10295 10296 10296 10295 10295 10296 10297 10297 10296 10295 10294 10294 10294 10293 10292 10290 10289 10288 10287 10286 10285 10284 10283 10282 10281 10280 10280 10279 10278 10276 10274 10272 10271 10269 10268 10266 10265 10265 10265 10265 10266 10266 10266 10265 10264 10263 10263
10232 10232 10231 10231 10232 10232 10233 10235 10237 10239 10241 10241 10241 10242 10246 10249 10253 10254 10254 10253 10253 10253 10254 10254 10254 10258 10263 10268 10271 10274 10276 10277 10276 10277 10279 10281 10283 10283 10283 10284 10284 10283 10284 10285 10285 10285 10284 10284 10284 10284 10284 10283 10282 10280 10280 10279 10279 10278 10277 10276 10276 10275 10274 10273 10273 10272 10270 10268 10266 10264 10263 10262 10261 10260 10259 10259 10259 10259 10258 10258 10257 10257 10256 10256 10255
10217 10217 10216 10216 10217 10219 10220 10222 10224 10226 10228 10228 10229 10230 10232 10233 10237 10240 10239 10238 10240 10242 10243 10244 10244 10247 10252 10258 10263 10264 10263 10262 10263 10266 10270 10271 10271 10272 10272 10272 10272 10272 10272 10273 10274 10274 10274 10275 10275 10275 10274 10273 10272 10272 10272 10272 10271 10270 10269 10269 10268 10268 10267 10267 10266 10264 10262 10261 10259 10258 10256 10255 10255 10254 10254 10254 10253 10252 10251 10251 10250 10249 10248 10248 10248
10204 10204 10204 10204 10205 10207 10209 10211 10213 10215 10216 10217 10218 10220 10220 10219 10222 10225 10225 10226 10231 10234 10233 10233 10235 10239 10244 10250 10253 10251 10250 10250 10253 10257 10260 10260 10260 10261 10261 10261 10261 10261 10261 10262 10264 10265 10266 10266 10266 10265 10265 10265 10264 10264 10264 10264 10263 10262 10262 10261 10261 10261 10260 10260 10259 10257 10255 10254 10253 10252 10250 10249 10249 10249 10248 10248 10247 10246 10245 10244 10243 10242 10242 10241 10241
10193 10194 10193 10193 10195 10197 10199 10201 10203 10205 10207 10207 10208 10209 10208 10208 10211 10213 10214 10217 10222 10224 10222 10223 10228 10232 10236 10239 10240 10238 10238 10241 10245 10247 10248 10249 10249 10250 10250 10251 10251 10251 10252 10254 10255 10257 10257 10257 10257 10257 10257 10257 10257 10257 10257 10256 10255 10255 10255 10255 10254 10254 10253 10253 10252 10250 10249 10248 10247 10246 10245 10244 10244 10243 10243 10242 10241 10240 10239 10238 10237 10237 10236 10235 10235
10183 10184 10183 10183 10185 10186 10188 10191 10194 10196 10197 10197 10197 10198 10198 10199 10201 10203 10205 10208 10210 10211 10213 10216 10220 10223 10227 10228 10228 10227 10230 10233 10236 10237 10238 10239 10240 10240 10241 10242 10242 10242 10244 10246 10247 10248 10248 10249 10249 10250 10250 10250 10250 10250 10250 10249 10249 10249 10249 10248 10248 10247 10247 10246 10245 10243 10243 10242 10242 10240 10240 10240 10239 10238 10237 10236 10235 10234 10234 10233 10233 10232 10230 10229 10229
10172 10173 10173 10174 10175 10176 10178 10180 10184 10186 10187 10187 10187 10188 10189 10191 10192 10193 10196 10198 10198 10199 10204 10209 10212 10215 10217 10218 10218 10219 10222 10225 10226 10228 10229 10230 10231 10232 10233 10233 10233 10235 10237 10238 10239 10239 10240 10241 10242 10243 10243 10244 10244 10244 10243 10243 10243 10243 10243 10242 10242 10241 10240 10240 10239 10237 10237 10237 10236 10236 10235 10234 10233 10232 10231 10230 10230 10229 10229 10228 10228 10227 10226 10224 10224
10161 10162 10163 10164 10165 10166 10167 10170 10173 10176 10177 10177 10178 10178 10179 10181 10182 10184 10186 10188 10189 10191 10196 10200 10204 10207 10208 10209 10210 10212 10214 10216 10218 10220 10222 10223 10224 10224 10224 10224 10226 10228 10229 10230 10231 10232 10233 10235 10235 10236 10237 10237 10237 10237 10237 10237 10237 10237 10237 10236 10236 10235 10234 10233 10233 10232 10231 10231 10231 10231 10230 10229 10228 10227 10226 10226 10225 10224 10223 10223 10222 10222 10221 10220 10220
10151 10152 10153 10154 10155 10156 10157 10160 10162 10165 10167 10167 10168 10169 10170 10172 10174 10175 10177 10179 10181 10185 10188 10192 10196 10199 10200 10201 10202 10204 10206 10208 10211 10213 10215 10216 10216 10216 10216 10217 10219 10220 10221 10222 10224 10225 10227 10228 10229 10230 10230 10230 10231 10231 10231 10231 10231 10231 10230 10230 10230 10230 10228 10227 10227 10227 10226 10225 10225 10225 10225 10223 10223 10222 10221 10221 10220 10220 10219 10218 10218 10217 10217 10217 10216
10144 10144 10145 10146 10147 10148 10150 10151 10153 10155 10157 10158 10160 10161 10162 10164 10166 10168 10170 10173 10175 10178 10182 10185 10189 10191 10192 10193 10195 10196 10198 10201 10204 10206 10207 10208 10207 10208 10209 10210 10212 10213 10214 10216 10217 10219 10220 10222 10223 10223 10223 10224 10224 10225 10225 10225 10225 10225 10224 10225 10225 10224 10223 10222 10222 10222 10221 10220 10220 10220 10219 10218 10218 10217 10217 10217 10216 10216 10215 10215 10214 10214 10213 10213 10213
10138 10138 10139 10140 10141 10142 10143 10144 10145 10147 10148 10150 10152 10153 10155 10156 10158 10160 10163 10165 10169 10172 10175 10178 10180 10182 10183 10185 10187 10189 10192 10195 10198 10199 10199 10199 10200 10201 10202 10203 10205 10206 10208 10209 10211 10213 10214 10215 10216 10217 10217 10218 10219 10219 10219 10219 10219 10219 10219 10219 10219 10219 10218 10217 10217 10217 10216 10215 10215 10215 10215 10214 10214 10213 10213 10213 10213 10212 10212 10212 10211 10211 10210 10210 10210
10131 10132 10132 10133 10134 10135 10136 10136 10138 10139 10141 10143 10145 10146 10148 10149 10150 10153 10156 10159 10162 10165 10168 10170 10172 10174 10176 10178 10180 10183 10186 10189 10191 10191 10191 10193 10194 10195 10196 10197 10199 10201 10202 10204 10205 10207 10208 10209 10210 10210 10211 10212 10213 10213 10213 10213 10213 10213 10214 10214 10214 10213 10212 10212 10212 10212 10211 10210 10210 10210 10210 10210 10210 10210 10210 10210 10210 10210 10210 10209 10209 10208 10208 10207 10206
10125 10126 10127 10128 10128 10129 10129 10130 10131 10133 10135 10137 10139 10140 10141 10142 10144 10147 10150 10152 10155 10158 10161 10164 10165 10167 10169 10172 10175 10178 10181 10182 10183 10184 10185 10186 10187 10189 10190 10192 10194 10195 10197 10198 10200 10201 10202 10203 10203 10204 10205 10206 10207 10207 10207 10207 10208 10208 10208 10209 10209 10208 10208 10207 10207 10207 10206 10206 10206 10206 10206 10207 10208 10208 10207 10207 10207 10207 10207 10207 10206 10206 10205 10204 10203
10120 10120 10121 10122 10123 10123 10124 10125 10126 10128 10129 10131 10132 10134 10135 10137 10138 10140 10143 10147 10150 10153 10155 10157 10159 10162 10164 10167 10170 10172 10174 10175 10176 10178 10179 10181 10182 10184 10185 10187 10188 10190 10191 10192 10194 10195 10196 10197 10198 10199 10200 10201 10201 10201 10201 10202 10202 10203 10204 10204 10204 10203 10203 10202 10203 10203 10202 10202 10202 10203 10203 10204 10205 10205 10205 10205 10205 10204 10204 10204 10203 10203 10202 10201 10201
10115 10115 10115 10116 10117 10118 10119 10120 10121 10123 10124 10125 10126 10128 10129 10131 10133 10135 10138 10142 10144 10146 10148 10151 10154 10157 10160 10162 10164 10165 10166 10168 10171 10172 10174 10175 10177 10179 10180 10181 10183 10184 10185 10187 10188 10189 10190 10191 10193 10194 10195 10195 10195 10196 10196 10197 10197 10198 10199 10199 10199 10198 10198 10198 10198 10199 10199 10199 10199 10200 10201 10201 10202 10202 10202 10202 10202 10201 10201 10201 10201 10200 10200 10199 10198
10111 10110 10110 10111 10112 10113 10114 10115 10116 10118 10119 10120 10121 10122 10124 10126 10128 10130 10133 10135 10137 10139 10142 10145 10148 10151 10153 10155 10156 10158 10160 10163 10165 10167 10168 10170 10172 10173 10175 10176 10177 10178 10180 10182 10183 10184 10185 10186 10188 10189 10189 10189 10190 10190 10191 10192 10192 10193 10194 10194 10194 10194 10194 10194 10194 10195 10196 10196 10196 10197 10198 10199 10199 10199 10199 10199 10199 10199 10199 10198 10198 10198 10197 10196 10196
10107 10106 10106 10107 10108 10109 10110 10111 10112 10113 10114 10115 10116 10118 10119 10121 10123 10125 10127 10130 10132 10134 10136 10139 10141 10144 10146 10148 10150 10153 10155 10158 10160 10161 10163 10165 10166 10168 10169 10170 10171 10173 10175 10176 10177 10179 10180 10182 10183 10183 10184 10184 10185 10185 10186 10187 10187 10188 10189 10190 10190 10190 10190 10190 10191 10192 10192 10193 10193 10194 10195 10196 10196 10197 10197 10197 10196 10196 10196 10196 10196 10195 10195 10194 10193
10104 10103 10103 10103 10104 10105 10106 10107 10108 10109 10110 10111 10112 10114 10115 10117 10119 10121 10123 10125 10127 10129 10131 10134 10136 10139 10141 10143 10145 10148 10150 10152 10154 10156 10157 10159 10160 10162 10163 10164 10166 10168 10170 10171 10172 10174 10175 10176 10177 10178 10178 10179 10180 10181 10181 10182 10183 10184 10185 10185 10186 10186 10186 10187 10187 10188 10189 10190 10190 10191 10192 10193 10193 10194 10195 10194 10194 10194 10193 10193 10193 10193 10193 10192 10191
10101 10101 10101 10101 10101 10102 10102 10103 10104 10105 10106 10107 10109 10110 10111 10113 10115 10116 10119 10121 10123 10125 10127 10130 10132 10134 10136 10138 10140 10142 10145 10147 10148 10150 10151 10153 10154 10156 10158 10160 10161 10163 10164 10166 10167 10169 10170 10171 10172 10172 10173 10174 10175 10176 10177 10178 10178 10179 10180 10181 10182 10182 10183 10183 10184 10185 10186 10187 10187 10188 10189 10190 10191 10192 10192 10192 10191 10191 10191 10191 10191 10191 10190 10190 10189
10098 10098 10098 10098 10098 10099 10099 10100 10101 10102 10103 10105 10106 10107 10108 10110 10111 10113 10115 10117 10119 10121 10123 10125 10127 10129 10131 10133 10135 10137 10139 10141 10142 10144 10146 10148 10149 10151 10153 10155 10156 10158 10159 10161 10162 10163 10164 10165 10166 10167 10168 10169 10171 10172 10172 10173 10174 10175 10176 10177 10178 10179 10179 10180 10181 10181 10182 10183 10184 10185 10186 10187 10188 10189 10190 10189 10189 10189 10189 10189 10189 10189 10188 10188 10187
10095 10095 10095 10096 10096 10097 10097 10098 10098 10099 10100 10102 10103 10104 10105 10107 10109 10110 10112 10114 10116 10118 10119 10121 10123 10125 10127 10129 10131 10133 10134 10136 10138 10139 10141 10143 10145 10146 10148 10150 10151 10153 10154 10156 10157 10158 10159 10160 10161 10163 10164 10165 10166 10167 10168 10169 10170 10171 10172 10173 10174 10175 10176 10177 10177 10178 10179 10180 10181 10182 10183 10184 10185 10186 10187 10187 10187 10187 10187 10187 10187 10187 10186 10186 10185